THOR ABLESTAR DEB, 1521

Orbit data source: Space-Track

THOR ABLESTAR DEB, 1521 is space debris in LEO originally from a launch on Fri, 13 Aug 1965 UTC launched from the Air Force Western Test Range (AFWTR). Debris objects in space refer to the collection of defunct objects orbiting the Earth. Examples of debris include non-operational satellites, rocket bodies, and fragments generated from explosions, collisions, or faulty payload assembly.

Loading next visibility...
Identifier
1521, 1965-065K
Orbit
LEO
Country
Flag of USUS
Related business
Manufacturer
NRL
Mission
Spacecraft
Bus & Motor
Unknown
Mass
Unknown
Launch date (UTC)
1965-08-13 (61 years ago)
Launch vehicle
Unknown
Launch site
Air Force Western Test Range (AFWTR)
Object type
Payload
Rocket body
Debris
Shape & HBR
Unknown shape, 0.2 m
Radar Cross Section
Medium (>0.1 m² and <1 m²)

Expand to show TLE details & history
Last TLE update: 1 day ago

TLE from 1 day ago
0 THOR ABLESTAR DEB
1 01521U 65065K   26163.13743333  .00000030  00000-0  43837-4 0  9998
2 01521  90.0212 210.2957 0067501 277.4401 136.5783 13.33284004958738
Epoch: 2026-06-12T03:17Z
TLE epoch observation values (Epoch: 2026-06-12T03:17:54.239Z)
Latitude
54.63936°
Longitude
-99.68121°
Altitude
1,180.49 km
Speed
7.25 km/s
True Right ascension
14h 01m 03s
True Declination
54° 29' 10"
Sunlit
Object was in daylight at epoch
Visualization orbit readout
Latitude
Unknown
Longitude
Unknown
Altitude
Unknown
Speed
Unknown
Apparent Right ascension
Unknown
Apparent Declination
Unknown
Sunlit
N/A
Visualization observer readout
Local Sidereal Time
20:10:21
Azimuth
Unknown
Elevation
Unknown
Doppler factor
Unknown
Orbital elements
Apogee altitude
1,182.167 km
Perigee altitude
1,080.785 km
Semi-major axis
7,509.613 km
Eccentricity
0.00675
Inclination
90.0212°
RAAN
210.2957°
Arg. of periapsis
277.4401°
True anomaly
137.10673°
Mean anomaly
136.5783°
Eccentric anomaly
136.84284°
Mean motion
3.33516 °/min
Orbital period
107.94 mins
BSTAR
0.000043837
Loading maneuver chart data...
Computing Atmospheric mass density...
Loading historical data...
Loading historical data...
Loading historical data...
Loading historical data...
Loading historical data...
Loading historical data...
Loading historical data...

Documentation

Showing up to 5 results
|